Location: Unspecified
(0.0000°N, 0.0000°E)
Time: 23:27:19
(UTC+00:00)

Vanguard 1 - All Passes

Search period start: 16 September 2014 00:00
Search period end: 26 September 2014 00:00
Orbit: 650 x 3838 km, 34.3° (Epoch: 07 September)

Date Brightness Start Highest point End Pass type
(mag) Time Alt. Az. Time Alt. Az. Time Alt. Az.
16 Sep - 01:00:57 10° NW 01:17:37 43° NNE 01:27:07 10° E visible
16 Sep - 03:28:15 10° WNW 03:40:49 61° SW 03:47:34 10° SE visible
16 Sep - 13:06:17 10° SSW 13:13:38 37° SE 13:26:17 10° ENE daylight
16 Sep - 15:25:18 10° WSW 15:36:11 68° NW 15:56:08 10° NE daylight
16 Sep - 17:50:06 10° WNW 18:04:10 31° NNW 18:23:15 10° NNE visible
16 Sep - 20:23:27 10° NW 20:38:12 20° N 20:52:33 10° NE visible
16 Sep - 22:55:38 10° NNW 23:12:20 26° NNE 23:24:17 10° ENE visible
17 Sep - 01:22:54 10° NW 01:40:04 56° NNE 01:49:19 10° ESE visible
17 Sep - 03:51:14 10° WNW 04:02:12 40° SW 04:08:33 10° SSE visible
17 Sep - 13:27:11 10° SW 13:35:03 54° SE 13:49:40 10° ENE daylight
17 Sep - 15:47:20 10° WSW 15:58:33 53° NNW 16:18:13 10° NE daylight
17 Sep - 18:13:59 10° WNW 18:27:54 26° NNW 18:45:33 10° NNE visible
17 Sep - 20:47:51 10° NW 21:02:57 20° N 21:16:49 10° NE visible
17 Sep - 23:17:50 10° NW 23:35:48 32° NNE 23:47:48 10° E visible
18 Sep - 01:45:01 10° NW 02:02:14 75° NE 02:11:10 10° ESE visible
18 Sep - 04:14:50 10° W 04:23:32 26° SW 04:29:10 10° SSE visible
18 Sep - 11:32:52 10° SSE 11:35:53 13° SE 11:39:32 10° ESE daylight
18 Sep - 13:48:21 10° SW 13:56:36 75° SE 14:12:31 10° ENE daylight
18 Sep - 16:09:45 10° W 16:21:14 42° NNW 16:40:12 10° NE daylight
18 Sep - 18:38:20 10° NW 18:52:01 22° N 19:08:19 10° NNE visible
18 Sep - 21:11:29 10° NW 21:27:31 22° N 21:41:25 10° NE visible
18 Sep - 23:39:51 10° NW 23:58:54 39° NNE 00:10:48 10° E visible
19 Sep - 02:07:24 10° NW 02:24:05 83° SW 02:32:42 10° SE visible
19 Sep - 04:39:25 10° WSW 04:44:58 16° SW 04:49:09 10° S visible
19 Sep - 11:52:18 10° S 11:57:22 22° SE 12:04:45 10° E daylight
19 Sep - 14:09:48 10° WSW 14:18:22 81° NW 14:34:59 10° NE daylight
19 Sep - 16:32:36 10° W 16:44:14 33° NNW 17:02:11 10° NE daylight
19 Sep - 19:02:53 10° NW 19:16:29 20° N 19:31:45 10° NE visible
19 Sep - 21:34:24 10° NNW 21:51:46 25° NNE 22:05:55 10° ENE visible
20 Sep - 00:01:49 10° NW 00:21:42 50° NNE 00:33:21 10° ESE visible
20 Sep - 02:30:08 10° WNW 02:45:43 61° SW 02:53:58 10° SE visible
20 Sep - 12:12:44 10° SSW 12:18:42 34° SE 12:28:36 10° ENE daylight
20 Sep - 14:31:32 10° WSW 14:40:24 61° NNW 14:57:09 10° NE daylight
20 Sep - 16:55:56 10° WNW 17:07:34 27° NNW 17:24:18 10° NNE daylight
20 Sep - 19:27:14 10° NW 19:41:11 20° N 19:56:00 10° NE visible
20 Sep - 21:56:48 10° NNW 22:15:38 29° NNE 22:30:00 10° ENE visible
21 Sep - 00:23:52 10° NW 00:44:11 64° NNE 00:55:31 10° ESE visible
21 Sep - 02:53:20 10° WNW 03:07:10 43° SW 03:14:58 10° SSE visible
21 Sep - 12:33:36 10° SW 12:40:03 53° SE 12:51:44 10° ENE daylight
21 Sep - 14:53:37 10° W 15:02:45 46° NNW 15:19:08 10° NE daylight
21 Sep - 17:19:45 10° WNW 17:31:16 23° NNW 17:46:44 10° NNE daylight
21 Sep - 19:51:00 10° NW 20:05:54 20° N 20:20:53 10° NE visible
21 Sep - 22:18:54 10° NW 22:39:07 36° NNE 22:53:33 10° E visible
22 Sep - 00:46:05 10° NW 01:06:23 81° NE 01:17:20 10° ESE visible
22 Sep - 03:17:10 10° W 03:28:36 29° SW 03:35:40 10° SSE visible
22 Sep - 12:54:48 10° SW 13:01:33 79° SE 13:14:22 10° NE daylight
22 Sep - 15:16:05 10° W 15:25:24 35° NNW 15:41:00 10° NE daylight
22 Sep - 17:43:55 10° NW 17:55:20 20° N 18:09:46 10° NNE visible
22 Sep - 20:14:05 10° NNW 20:30:25 23° NNE 20:45:57 10° ENE visible
22 Sep - 22:40:52 10° NW 23:02:14 45° NNE 23:16:35 10° E visible
23 Sep - 01:08:35 10° NW 01:28:18 79° SW 01:38:52 10° SE visible
23 Sep - 03:41:52 10° W 03:50:08 19° SW 03:55:56 10° S visible
23 Sep - 10:58:56 10° S 11:02:52 19° SE 11:08:07 10° E daylight
23 Sep - 13:16:17 10° WSW 13:23:16 73° NW 13:36:38 10° NE daylight
23 Sep - 15:39:00 10° WNW 15:48:20 28° NNW 16:02:52 10° NNE daylight
23 Sep - 18:08:06 10° NW 18:19:44 18° N 18:33:40 10° NE visible
23 Sep - 20:36:35 10° NNW 20:54:36 27° NNE 21:10:45 10° ENE visible
23 Sep - 23:02:50 10° NW 23:25:02 55° NNE 23:39:08 10° ESE visible
24 Sep - 01:31:27 10° WNW 01:50:01 61° SW 02:00:09 10° SE visible
24 Sep - 04:08:18 10° WSW 04:11:53 12° SW 04:14:57 10° SSW visible
24 Sep - 11:19:16 10° SSW 11:24:11 32° SE 11:31:45 10° ENE daylight
24 Sep - 13:38:05 10° WSW 13:45:18 52° NNW 13:58:36 10° NE daylight
24 Sep - 16:02:25 10° WNW 16:11:36 22° NNW 16:24:54 10° NNE daylight
24 Sep - 18:31:53 10° NNW 18:44:18 19° N 18:58:32 10° NE visible
24 Sep - 20:58:43 10° NNW 21:18:23 32° NNE 21:35:01 10° E visible
24 Sep - 23:24:53 10° NW 23:47:33 69° NE 00:01:18 10° ESE visible
25 Sep - 01:54:49 10° WNW 02:11:37 45° SW 02:21:12 10° SSE visible
25 Sep - 11:40:08 10° SW 11:45:31 53° SE 11:54:37 10° ENE daylight
25 Sep - 14:00:15 10° W 14:07:36 37° NNW 14:20:21 10° NE daylight
25 Sep - 16:26:16 10° NW 16:35:12 19° N 16:47:18 10° NNE daylight
25 Sep - 18:55:02 10° NNW 19:08:51 20° NNE 19:24:02 10° NE visible
25 Sep - 21:20:37 10° NW 21:41:48 39° NNE 21:58:41 10° E visible
25 Sep - 23:47:07 10° NW 00:00:00 42° NW 00:00:00 42° NW visible
